Location: St. Louis
(38.6270°N, 90.1994°W)
Time: 23:50:52
(UTC-05:00)

FENGYUN 1C DEB - Visible Passes

Search period start: 07 June 2023 00:00
Search period end: 17 June 2023 00:00
Orbit: 702 x 1127 km, 99.0° (Epoch: 07 June)

Date Brightness Start Highest point End Pass type
(mag) Time Alt. Az. Time Alt. Az. Time Alt. Az.
07 Jun ? 21:11:04 10° SW 21:15:43 21° W 21:20:06 10° NW visible
08 Jun ? 21:18:30 10° SW 21:22:39 18° W 21:26:34 10° NW visible
09 Jun ? 21:26:03 10° SW 21:29:34 15° W 21:32:55 10° WNW visible
10 Jun ? 21:33:49 10° WSW 21:36:30 13° W 21:39:06 10° WNW visible
11 Jun ? 21:42:04 10° WSW 21:43:26 11° W 21:44:46 10° WNW visible
